Date,TemperatureHighF,TemperatureAvgF,TemperatureLowF,DewpointHighF,DewpointAvgF,DewpointLowF,HumidityHigh,HumidityAvg,HumidityLow,PressureMaxIn,PressureMinIn,WindSpeedMaxMPH,WindSpeedAvgMPH,GustSpeedMaxMPH,PrecipitationSumIn
2013-3-1,28.0,23.8,21.0,22.0,19.4,16.8,95,83,66,30.65,30.50,22,11,26,0.00
2013-3-2,35.0,25.8,14.0,23.7,19.1,14.0,100,77,50,30.66,30.37,9,4,12,0.00
2013-3-3,39.0,31.4,23.0,29.1,25.4,21.8,98,79,63,30.37,29.99,14,6,22,0.00
2013-3-4,45.0,33.8,29.0,32.0,27.5,18.5,100,78,53,30.29,29.91,23,8,31,0.00
2013-3-5,30.0,25.4,21.0,22.6,19.5,15.6,90,78,63,30.68,30.27,36,18,47,0.04
2013-3-6,40.0,28.2,19.0,24.4,20.3,17.1,94,74,44,30.72,30.47,20,6,24,0.00
2013-3-7,50.0,33.1,21.0,31.2,25.2,20.3,98,75,44,30.57,30.25,11,6,22,0.00
2013-3-8,53.0,40.4,26.0,39.9,32.3,24.5,96,74,52,30.46,30.13,13,4,22,0.13
2013-3-9,54.0,44.0,33.0,52.3,42.8,33.0,100,96,90,30.14,29.74,26,5,38,0.34
2013-3-10,33.0,26.8,21.0,33.0,26.8,21.0,100,100,98,30.25,29.95,34,14,46,0.04
2013-3-11,31.0,22.5,18.0,22.1,18.9,15.9,100,87,62,30.33,30.11,25,8,32,0.03
2013-3-12,32.0,26.7,19.0,25.0,22.1,17.6,100,83,72,30.63,30.32,31,11,43,0.00
2013-3-13,39.0,26.3,12.0,23.0,18.0,12.0,100,74,44,30.73,30.49,12,4,14,0.00
2013-3-14,58.0,40.6,32.0,41.8,31.3,22.1,100,70,50,30.49,30.21,14,4,20,0.00
2013-3-15,58.0,43.7,35.0,43.8,38.2,35.0,100,82,53,30.31,29.89,16,6,21,0.00
2013-3-16,38.0,30.2,26.0,37.7,26.8,23.2,100,87,74,30.46,30.10,26,11,35,0.00
2013-3-17,45.0,32.3,21.0,35.2,25.0,19.5,100,77,48,30.43,29.95,14,6,21,0.01
2013-3-18,34.0,30.9,21.0,34.0,21.6,13.4,100,71,44,30.36,29.94,36,13,51,0.07
2013-3-19,49.0,29.5,16.0,27.4,17.8,11.4,90,64,30,30.63,30.26,25,8,39,0.00
2013-3-20,33.0,21.1,13.0,14.3,9.5,3.6,88,63,36,30.73,30.39,24,11,33,0.00
2013-3-21,31.0,24.3,18.0,18.5,14.3,11.8,88,67,47,30.43,30.18,9,4,13,0.00
2013-3-22,34.0,28.5,23.0,21.0,19.1,17.2,87,68,53,30.29,30.21,9,3,12,0.00
2013-3-23,37.0,31.1,27.0,29.5,23.2,18.7,100,74,52,30.37,30.27,17,6,23,0.00
2013-3-24,28.0,25.1,23.0,28.0,22.6,18.5,100,90,72,30.37,30.28,28,15,34,0.00
2013-3-25,29.0,25.0,19.0,25.5,22.1,18.0,100,89,68,30.65,30.36,27,14,33,0.00
2013-3-26,42.0,25.4,13.0,24.6,18.3,13.0,100,78,41,30.69,30.42,12,4,15,0.00
2013-3-27,52.0,37.3,22.0,32.4,25.9,20.4,97,67,39,30.56,30.32,12,4,18,0.00
2013-3-28,60.0,43.3,23.0,37.3,29.5,23.0,100,64,29,30.54,30.27,9,2,13,0.00
2013-3-29,69.0,49.5,26.0,42.2,32.5,26.0,100,60,22,30.49,30.16,11,3,20,0.00
2013-3-30,65.0,54.4,45.0,53.9,43.5,31.7,100,71,32,30.25,30.03,22,7,27,0.15
2013-3-31,55.0,44.5,29.0,41.1,31.3,17.1,100,67,24,30.44,30.11,27,11,37,0.02